Overview Statistics Trail Chart Weather Telemetry Raw packets
 

This is the latest recevied weather packets stored in our database for station/object KB0BS-13. If no packets are shown the sender has not sent any weather packets the latest 10 day(s).

<< 49 50 51 52 53 54 55 >>
Time Temp. Humidity Pressure Rain* Wind** Luminosity Snow
1777369461 10.56° C 99% 999.4 hPa 0 mm - 0 W/m² -
1777369157 10.56° C 99% 999.2 hPa 0 mm - 0 W/m² -
1777368856 10° C 99% 999.5 hPa 0 mm - 0 W/m² -
1777368555 10° C 99% 999.6 hPa 0 mm - 0 W/m² -
1777368252 10° C 99% 999.4 hPa 0 mm - 0 W/m² -
1777367949 8.89° C 99% 999.9 hPa 0 mm - 0 W/m² -
1777367646 8.89° C 99% 999.2 hPa 0 mm - 0 W/m² -
1777367342 9.44° C 99% 999.2 hPa 0 mm - 0 W/m² -
1777367041 8.89° C 99% 999 hPa 0 mm - 0 W/m² -
1777366741 8.89° C 99% 999 hPa 0 mm - 0 W/m² -
1777366436 8.89° C 99% 998.5 hPa 0 mm - 0 W/m² -
1777366132 8.89° C 99% 999 hPa 1.78 mm - 0 W/m² -
1777365829 8.89° C 99% 999 hPa 1.78 mm - 0 W/m² -
1777365526 8.89° C 97% 999.2 hPa 1.27 mm - 0 W/m² -
1777365223 8.89° C 98% 999.3 hPa 1.78 mm - 0 W/m² -
1777364918 8.89° C 96% 999.4 hPa 1.27 mm - 0 W/m² -
1777364613 8.89° C 96% 999.4 hPa 1.27 mm - 0 W/m² -
1777364310 8.89° C 95% 999.6 hPa 3.05 mm - 0 W/m² -
1777364006 8.89° C 94% 999.4 hPa 3.05 mm - 0 W/m² -
1777363702 8.89° C 93% 999.5 hPa 0 mm - 0 W/m² -
1777363399 8.89° C 92% 999.8 hPa 0 mm - 0 W/m² -
1777363097 8.89° C 91% 999.7 hPa 0 mm - 0 W/m² -
1777362793 8.89° C 91% 999.7 hPa 0 mm - 0 W/m² -
1777362491 8.89° C 92% 999.9 hPa 0 mm - 0 W/m² -
1777362188 8.89° C 93% 1000.2 hPa 0 mm - 0 W/m² -

* Rain latest hour (hover to see other rain measurements)
** Current wind speed in m/s (hover to see current wind gust speed)